Location: Bednik
(45.3500°N, 16.3833°E)
Time: 07:44:29
(UTC+00:00)

SPOT 1/Viking Rocket - Pass Details

Date: 08 August 2020
Orbit: 776 x 795 km, 98.5° (Epoch: 26 September)

Event Time Altitude Azimuth Distance (km) Brightness Sun altitude
Exits shadow 20:39:52 27° 198° (SSW) 1,500 4.7 -21.1°
Maximum altitude 20:42:30 50° 260° (W) 1,007 4.2 -21.4°
Drops below altitude 10° 20:47:36 10° 336° (NNW) 2,374 7.1 -21.9°
Sets 20:50:01 0° 342° (NNW) 3,309 8.1 -22.1°
